When you browse on this site, cookies collect data to enhance your experience and personalize the content and advertising you see.
Visit our Privacy Policy to learn more. By continuing to use the site, you agree to this use of cookies and data.
  • Em Portugal
  • Lista de países
  • Para 7 dias
  • Temperatura da água
  • Mapas de satélite
  • Mapa do tempo
  • Widgets de tempo
  • user-avatar
    Iniciar Sessão

    Previsão horária em Oruro

    Hoje, 19 Abril, Sexta-feira

    Tempo Temperatura Precipitação Vento Pressão Humidade
    00:00 +10°C° 0 mm 3 m/s 477 mmHg 59%
    01:00 +9°C° 0 mm 3 m/s 477 mmHg 60%
    02:00 +9°C° 0 mm 2 m/s 476 mmHg 63%
    03:00 +8°C° 0.1 mm 2 m/s 476 mmHg 64%
    04:00 +8°C° 0.1 mm 2 m/s 476 mmHg 66%
    05:00 +8°C° 0.1 mm 2 m/s 476 mmHg 67%
    06:00 +9°C° 0 mm 2 m/s 476 mmHg 64%
    07:00 +9°C° 0 mm 2 m/s 477 mmHg 62%
    08:00 +9°C° 0 mm 2 m/s 477 mmHg 60%
    09:00 +12°C° 0 mm 2 m/s 478 mmHg 53%
    10:00 +14°C° 0 mm 2 m/s 479 mmHg 46%
    11:00 +16°C° 0 mm 2 m/s 480 mmHg 39%
    12:00 +17°C° 0 mm 2 m/s 480 mmHg 36%
    13:00 +18°C° 0 mm 1 m/s 480 mmHg 32%
    14:00 +19°C° 0 mm 1 m/s 480 mmHg 29%
    15:00 +18°C° 0.1 mm 2 m/s 480 mmHg 29%
    16:00 +18°C° 0.1 mm 2 m/s 479 mmHg 30%
    17:00 +18°C° 0.1 mm 3 m/s 479 mmHg 31%
    18:00 +16°C° 0.1 mm 3 m/s 479 mmHg 37%
    19:00 +14°C° 0.1 mm 4 m/s 478 mmHg 42%
    20:00 +12°C° 0.1 mm 5 m/s 478 mmHg 48%
    21:00 +12°C° 0.2 mm 4 m/s 478 mmHg 51%
    22:00 +11°C° 0.2 mm 3 m/s 478 mmHg 53%
    23:00 +11°C° 0.2 mm 3 m/s 478 mmHg 56%

    Amanhã, 20 Abril, Sábado

    Tempo Temperatura Precipitação Vento Pressão Humidade
    00:00 +10°C° 0 mm 3 m/s 478 mmHg 57%
    01:00 +10°C° 0 mm 3 m/s 477 mmHg 57%
    02:00 +10°C° 0 mm 3 m/s 477 mmHg 57%
    03:00 +9°C° 0 mm 2 m/s 477 mmHg 58%
    04:00 +9°C° 0 mm 2 m/s 477 mmHg 59%
    05:00 +9°C° 0 mm 2 m/s 477 mmHg 60%
    06:00 +9°C° 0 mm 2 m/s 477 mmHg 59%
    07:00 +10°C° 0 mm 3 m/s 478 mmHg 58%
    08:00 +10°C° 0 mm 3 m/s 478 mmHg 57%
    09:00 +12°C° 0 mm 3 m/s 479 mmHg 51%
    10:00 +13°C° 0 mm 3 m/s 480 mmHg 46%
    11:00 +16°C° 0 mm 3 m/s 481 mmHg 41%
    12:00 +17°C° 0 mm 3 m/s 480 mmHg 38%
    13:00 +17°C° 0 mm 3 m/s 480 mmHg 35%
    14:00 +18°C° 0 mm 3 m/s 480 mmHg 32%
    15:00 +18°C° 0 mm 2 m/s 480 mmHg 33%
    16:00 +18°C° 0 mm 2 m/s 479 mmHg 33%
    17:00 +18°C° 0 mm 2 m/s 479 mmHg 33%
    18:00 +17°C° 0.2 mm 3 m/s 479 mmHg 39%
    19:00 +14°C° 0.2 mm 4 m/s 478 mmHg 45%
    20:00 +13°C° 0.2 mm 5 m/s 478 mmHg 51%
    21:00 +12°C° 0.7 mm 4 m/s 478 mmHg 57%
    22:00 +11°C° 0.7 mm 4 m/s 477 mmHg 63%
    23:00 +10°C° 0.7 mm 4 m/s 477 mmHg 68%

    Depois de amanhã, 21 Abril, Domingo

    Tempo Temperatura Precipitação Vento Pressão Humidade
    00:00 +8°C° 0.3 mm 4 m/s 477 mmHg 70%
    01:00 +8°C° 0.3 mm 4 m/s 476 mmHg 72%
    02:00 +8°C° 0.3 mm 4 m/s 476 mmHg 73%
    03:00 +8°C° 0.1 mm 4 m/s 476 mmHg 74%
    04:00 +9°C° 0.1 mm 3 m/s 476 mmHg 74%
    05:00 +8°C° 0.1 mm 2 m/s 476 mmHg 74%
    06:00 +9°C° 0 mm 2 m/s 476 mmHg 72%
    07:00 +9°C° 0 mm 2 m/s 477 mmHg 69%
    08:00 +9°C° 0 mm 2 m/s 477 mmHg 67%
    09:00 +11°C° 0 mm 3 m/s 478 mmHg 58%
    10:00 +13°C° 0 mm 3 m/s 479 mmHg 50%
    11:00 +14°C° 0 mm 4 m/s 480 mmHg 42%
    12:00 +15°C° 0.1 mm 4 m/s 480 mmHg 40%
    13:00 +17°C° 0.1 mm 4 m/s 480 mmHg 37%
    14:00 +18°C° 0.1 mm 4 m/s 479 mmHg 34%
    15:00 +18°C° 0 mm 4 m/s 479 mmHg 32%
    16:00 +18°C° 0 mm 4 m/s 479 mmHg 31%
    17:00 +18°C° 0 mm 4 m/s 479 mmHg 29%
    18:00 +15°C° 0 mm 4 m/s 478 mmHg 29%
    19:00 +14°C° 0 mm 3 m/s 478 mmHg 28%
    20:00 +12°C° 0 mm 3 m/s 477 mmHg 28%
    21:00 +12°C° 0 mm 2 m/s 477 mmHg 35%
    22:00 +10°C° 0 mm 2 m/s 477 mmHg 43%
    23:00 +10°C° 0 mm 1 m/s 476 mmHg 50%

    22 Abril, Segunda-feira

    Tempo Temperatura Precipitação Vento Pressão Humidade
    00:00 +9°C° 0 mm 1 m/s 476 mmHg 51%
    01:00 +9°C° 0 mm 1 m/s 475 mmHg 52%
    02:00 +8°C° 0 mm 1 m/s 475 mmHg 54%
    03:00 +7°C° 0 mm 1 m/s 474 mmHg 57%
    04:00 +7°C° 0 mm 1 m/s 474 mmHg 60%
    05:00 +6°C° 0 mm 1 m/s 473 mmHg 64%
    06:00 +7°C° 0 mm 1 m/s 474 mmHg 58%
    07:00 +8°C° 0 mm 1 m/s 475 mmHg 53%
    08:00 +9°C° 0 mm 1 m/s 476 mmHg 48%
    09:00 +10°C° 0 mm 1 m/s 477 mmHg 39%
    10:00 +12°C° 0 mm 1 m/s 478 mmHg 29%
    11:00 +14°C° 0 mm 1 m/s 479 mmHg 20%
    12:00 +15°C° 0 mm 1 m/s 479 mmHg 18%
    13:00 +16°C° 0 mm 1 m/s 479 mmHg 16%
    14:00 +18°C° 0 mm 1 m/s 479 mmHg 13%
    15:00 +17°C° 0 mm 2 m/s 478 mmHg 13%
    16:00 +17°C° 0 mm 2 m/s 478 mmHg 13%
    17:00 +17°C° 0 mm 2 m/s 478 mmHg 13%
    18:00 +16°C° 0 mm 3 m/s 478 mmHg 22%
    19:00 +13°C° 0 mm 5 m/s 477 mmHg 30%
    20:00 +10°C° 0 mm 6 m/s 477 mmHg 39%
    21:00 +9°C° 0 mm 6 m/s 477 mmHg 47%
    22:00 +9°C° 0 mm 6 m/s 476 mmHg 54%
    23:00 +8°C° 0 mm 5 m/s 476 mmHg 62%

    23 Abril, Terça-feira

    Tempo Temperatura Precipitação Vento Pressão Humidade
    00:00 +7°C° 0 mm 5 m/s 476 mmHg 65%
    01:00 +7°C° 0 mm 4 m/s 475 mmHg 68%
    02:00 +6°C° 0 mm 4 m/s 475 mmHg 72%
    03:00 +7°C° 0 mm 3 m/s 475 mmHg 72%
    04:00 +7°C° 0 mm 3 m/s 475 mmHg 73%
    05:00 +7°C° 0 mm 2 m/s 475 mmHg 73%
    06:00 +7°C° 0 mm 2 m/s 475 mmHg 70%
    07:00 +7°C° 0 mm 3 m/s 476 mmHg 68%
    08:00 +8°C° 0 mm 3 m/s 477 mmHg 65%
    09:00 +9°C° 0 mm 3 m/s 477 mmHg 59%
    10:00 +10°C° 0 mm 3 m/s 478 mmHg 53%
    11:00 +12°C° 0 mm 3 m/s 479 mmHg 47%
    12:00 +12°C° 0.1 mm 3 m/s 479 mmHg 47%
    13:00 +12°C° 0.1 mm 4 m/s 478 mmHg 48%
    14:00 +12°C° 0.1 mm 4 m/s 478 mmHg 49%
    15:00 +12°C° 0.1 mm 4 m/s 477 mmHg 52%
    16:00 +12°C° 0.1 mm 5 m/s 477 mmHg 54%
    17:00 +10°C° 0.1 mm 5 m/s 476 mmHg 57%
    18:00 +9°C° 0 mm 5 m/s 476 mmHg 61%
    19:00 +10°C° 0 mm 4 m/s 476 mmHg 65%
    20:00 +8°C° 0 mm 4 m/s 476 mmHg 69%
    21:00 +9°C° 0 mm 3 m/s 476 mmHg 70%
    22:00 +8°C° 0 mm 3 m/s 476 mmHg 71%
    23:00 +8°C° 0 mm 2 m/s 476 mmHg 72%

    24 Abril, Quarta-feira

    Tempo Temperatura Precipitação Vento Pressão Humidade
    00:00 +8°C° 0 mm 2 m/s 476 mmHg 72%
    01:00 +7°C° 0 mm 2 m/s 476 mmHg 72%
    02:00 +7°C° 0 mm 2 m/s 475 mmHg 73%
    03:00 +6°C° 0 mm 2 m/s 475 mmHg 73%
    04:00 +6°C° 0 mm 2 m/s 475 mmHg 74%
    05:00 +6°C° 0 mm 2 m/s 475 mmHg 75%
    06:00 +5°C° 0 mm 3 m/s 475 mmHg 73%
    07:00 +7°C° 0 mm 3 m/s 476 mmHg 70%
    08:00 +7°C° 0 mm 3 m/s 477 mmHg 68%
    09:00 +9°C° 0 mm 3 m/s 478 mmHg 59%
    10:00 +11°C° 0 mm 3 m/s 479 mmHg 50%
    11:00 +13°C° 0 mm 3 m/s 480 mmHg 41%
    12:00 +14°C° 0 mm 3 m/s 480 mmHg 39%
    13:00 +16°C° 0 mm 3 m/s 480 mmHg 37%
    14:00 +17°C° 0 mm 3 m/s 479 mmHg 35%
    15:00 +16°C° 0 mm 3 m/s 479 mmHg 36%
    16:00 +16°C° 0 mm 3 m/s 479 mmHg 37%
    17:00 +16°C° 0 mm 2 m/s 479 mmHg 37%
    18:00 +14°C° 0 mm 3 m/s 478 mmHg 46%
    19:00 +12°C° 0 mm 4 m/s 477 mmHg 54%
    20:00 +11°C° 0 mm 4 m/s 477 mmHg 62%
    21:00 +10°C° 0 mm 4 m/s 477 mmHg 63%
    22:00 +8°C° 0 mm 4 m/s 477 mmHg 64%
    23:00 +8°C° 0 mm 4 m/s 477 mmHg 65%
    Mostrar mais